Sidney, NE

4:52 AM MDT on August 27, 2016 (GMT -0600)
Sidney Municipal

Weather History for KSNY - February, 2014

Change the Weather History Date:

Saturday, February 8, 2014

  Actual Average Record
Temperature  
Mean Temperature 21 °F 30 °F  
Max Temperature 32 °F 43 °F 75 °F (1954)
Min Temperature 9 °F 18 °F -10 °F (1989)
Degree Days  
Heating Degree Days 44 35  
Month to date heating degree days 476 280  
Since 1 July heating degree days 3454 3937  
Cooling Degree Days 0 0  
Month to date cooling degree days 0 0  
Year to date cooling degree days 0 0  
Moisture  
Dew Point 15 °F    
Average Humidity 72    
Maximum Humidity 84    
Minimum Humidity 60    
Precipitation  
Precipitation 0.00 in 0.01 in 0.34 in (1980)
Month to date precipitation 0.01 0.07  
Year to date precipitation 0.22 0.27  
Sea Level Pressure  
Sea Level Pressure 30.03 in    
Wind  
Wind Speed 11 mph (NE)    
Max Wind Speed 20 mph    
Max Gust Speed 24 mph    
Visibility 10 miles    
Events      
T = Trace of Precipitation, MM = Missing Value Source: NWS Daily Summary

Daily Weather History Graph

Daily Weather History Graph

Search for Another Location

Airport or City:

Trip Planner

Search our weather history database for the weather conditions in past years. The results will help you decide how hot, cold, wet, or windy it might be!

Date:

Astronomy

Feb. 08, 2014 Rise Set
Actual Time 6:55 AM MST 5:17 PM MST
Civil Twilight 6:26 AM MST 5:46 PM MST
Nautical Twilight 5:53 AM MST 6:18 PM MST
Astronomical Twilight 5:21 AM MST 6:51 PM MST
Moon 12:12 PM MST (2/8) 2:10 AM MST (2/8)
Length of Visible Light 11h 19m
Length of Day
10h 22m
Waxing Gibbous, 69% of the Moon is Illuminated
Feb 8
Waxing Gibbous
Feb 14
Full
Feb 22
Last Quarter
Mar 1
New
Mar 8
First Quarter

Hourly Weather History & Observations

Time (MST) Temp. Windchill Dew Point Humidity Pressure Visibility Wind Dir Wind Speed Gust Speed Precip Events Conditions
12:53 AM 30.9 °F 20.7 °F 21.9 °F 69% 29.95 in 10.0 mi WNW 13.8 mph - N/A   Overcast
1:53 AM 30.0 °F 20.5 °F 21.9 °F 72% 29.97 in 10.0 mi NW 11.5 mph - N/A   Overcast
2:53 AM 25.0 °F 13.6 °F 18.0 °F 75% 29.98 in 10.0 mi NNW 12.7 mph - N/A   Clear
3:53 AM 24.1 °F 12.0 °F 12.9 °F 62% 29.97 in 10.0 mi NNW 13.8 mph - N/A   Clear
4:53 AM 19.9 °F 13.4 °F 12.0 °F 71% 30.00 in 10.0 mi NNW 4.6 mph - N/A   Clear
5:53 AM 10.0 °F -0.9 °F 3.9 °F 76% 30.04 in 10.0 mi NW 6.9 mph - N/A   Clear
6:53 AM 10.0 °F 1.8 °F 5.0 °F 80% 30.03 in 10.0 mi NW 4.6 mph - N/A   Clear
7:53 AM 12.9 °F 3.8 °F 8.1 °F 81% 30.03 in 10.0 mi NW 5.8 mph - N/A   Mostly Cloudy
8:53 AM 21.9 °F 17.2 °F 14.0 °F 72% 29.99 in 10.0 mi West 3.5 mph - N/A   Overcast
9:53 AM 26.1 °F 17.6 °F 17.1 °F 69% 29.99 in 10.0 mi South 8.1 mph - N/A   Overcast
10:53 AM 28.0 °F 18.6 °F 18.0 °F 66% 29.96 in 10.0 mi South 10.4 mph - N/A   Overcast
11:53 AM 28.9 °F 16.9 °F 18.0 °F 64% 29.91 in 10.0 mi South 17.3 mph - N/A   Mostly Cloudy
12:53 PM 28.0 °F 18.6 °F 19.0 °F 69% 29.90 in 10.0 mi SSE 10.4 mph - N/A   Overcast
1:53 PM 28.9 °F 18.6 °F 19.0 °F 67% 29.88 in 9.0 mi SSE 12.7 mph - N/A   Partly Cloudy
2:53 PM 30.0 °F 19.1 °F 19.9 °F 66% 29.88 in 10.0 mi South 15.0 mph - N/A   Clear
3:53 PM 30.0 °F 24.1 °F 21.0 °F 69% 29.92 in 10.0 mi East 5.8 mph - N/A   Clear
4:53 PM 26.1 °F 15.0 °F 19.0 °F 75% 29.98 in 9.0 mi East 12.7 mph - N/A   Mostly Cloudy
5:53 PM 21.9 °F 7.8 °F 17.1 °F 82% 30.07 in 8.0 mi East 17.3 mph - N/A   Overcast
6:53 PM 21.0 °F 8.1 °F 16.0 °F 81% 30.13 in 10.0 mi ENE 13.8 mph - N/A   Overcast
7:05 PM 21.0 °F 7.6 °F 15.1 °F 78% 29.97 in 10.0 mi ENE 15.0 mph - N/A   Overcast
7:29 PM 21.0 °F 8.1 °F 15.1 °F 78% 29.99 in 10.0 mi ENE 13.8 mph - N/A   Overcast
7:53 PM 21.0 °F 8.1 °F 16.0 °F 81% 30.18 in 10.0 mi ENE 13.8 mph - N/A   Overcast
8:53 PM 21.0 °F 9.9 °F 16.0 °F 81% 30.19 in 9.0 mi ENE 10.4 mph - N/A   Overcast
9:03 PM 21.0 °F 9.9 °F 16.0 °F 81% 30.05 in 9.0 mi NE 10.4 mph - N/A   Overcast
9:53 PM 18.0 °F 3.6 °F 14.0 °F 84% 30.21 in 9.0 mi NE 15.0 mph - N/A   Overcast
10:53 PM 16.0 °F 1.7 °F 10.9 °F 81% 30.21 in 10.0 mi NE 13.8 mph - N/A   Overcast
11:22 PM 15.1 °F 0.5 °F 10.0 °F 80% 30.08 in 10.0 mi NE 13.8 mph - N/A   Overcast
11:37 PM 15.1 °F 0.5 °F 10.0 °F 80% 30.08 in 10.0 mi NE 13.8 mph - N/A   Overcast
11:48 PM 15.8 °F 2.7 °F 10.4 °F 79% 30.09 in 10.0 mi NNE 11.5 mph - N/A   Overcast
11:53 PM 14.0 °F 0.5 °F 10.0 °F 84% 30.23 in 10.0 mi NE 11.5 mph - N/A   Overcast